Weather in Saint John

Canada     45˚16′26″N   66˚03′52″W
temp.,
°C
wind,
m/s
gust,
m/s
humid.,
%
clouds,
%
prec.,
mm/h
press.,
hPa
HPBL,
m
2 december, wed
wed223:00+13˚ssw61498100 16.1 1008710
02:00+10˚sw61093100 22.8 1008519
05:00+9˚ssw51187100 1.7 1010774
08:00+8˚ssw4886100 2.6 1012796
11:00+8˚ssw5780100 0.3 1013854
14:00+9˚ssw6106998 0.6 10121412
17:00+7˚ssw5108188 0.1 1011738
20:00+8˚ssw5118094 1.4 10111103
3 december, thu
thu323:00+7˚ssw71279100 0.4 10101220
02:00+5˚wsw598299 0.9 10111026
05:00+4˚wsw498291 0.1 1012548
08:00+1˚w488758 0.1 1014498
11:00+2˚w46740 0.0 1017631
14:00+4˚wsw47640 0.0 1017606
17:00+2˚wsw35690 0.0 1018209
20:00+4˚ssw49780 0.0 1018371
4 december, fri
fri423:00+6˚sw5107953 0.0 1018754
02:00+7˚sw6127976 0.0 1017726
05:00+6˚sw41076100 0.0 1016457
08:00+7˚sw5117881 0.0 1017583
11:00+8˚sw6116270 0.0 10171012
14:00+8˚sw6116385 0.0 10151007
17:00+7˚sw61373100 0.0 1014967
20:00+7˚wsw51272100 0.0 1015918
5 december, sat
sat523:00+6˚wsw41166100 0.0 1015663
02:00+5˚wsw41168100 0.0 1015819
05:00+4˚wsw4107698 0.0 1016566
08:00+2˚w388649 0.0 1017326
11:00+5˚w47660 0.0 1019782
14:00+5˚wnw346317 0.0 1019937
17:00+4˚wnw2273100 0.0 1020189
20:00+2˚n2473100 0.0 1020307
6 december, sun
sun623:00+1˚nne3674100 0.0 1021287
02:00+1˚ne4773100 0.0 1020342
05:00+1˚ene4874100 0.1 1018548
08:00+2˚ene71380100 0.2 1016586
11:00+3˚ene81584100 0.6 1012637
14:00+3˚ene81592100 10.0 1006730
17:00+5˚ne81688100 4.4 1002734
20:00+5˚ne71488100 5.3 1000631